W9GWP Weather Reports


Display with metric or nautical units.
time (UTC)temp
F
wind
direction
speed
MPH
gust
MPH
rain 1hr
in
rain 24hr
in
rain mn
in
humidity
%
barometer
mb
20260905122624 72 0 1.0 5.0 0.00 0.00 0.00 99 1041.2
20260905121120 71 154 0.0 2.0 0.00 0.00 0.00 99 1041.1
20260905115619 71 311 0.0 2.0 0.00 0.00 0.00 98 1041.1
20260905114118 71 286 0.0 3.0 0.00 0.00 0.00 98 1040.8
20260905112618 71 106 1.0 6.0 0.00 0.00 0.00 98 1040.6
20260905111110 71 97 1.0 2.0 0.00 0.00 0.00 98 1040.6
20260905105606 71 246 0.0 3.0 0.00 0.00 0.00 98 1040.4
20260905104101 71 117 0.0 2.0 0.00 0.00 0.00 98 1040.2
20260905102559 71 180 0.0 0.0 0.00 0.00 0.00 98 1040.3
20260905101058 71 291 0.0 0.0 0.00 0.00 0.00 98 1040.3
20260905095555 71 261 0.0 0.0 0.00 0.00 0.00 98 1040.1
20260905094050 71 352 0.0 0.0 0.00 0.00 0.00 98 1040.3
20260905092546 72 270 0.0 1.0 0.00 0.00 0.00 97 1040.6
20260905091042 72 270 0.0 0.0 0.00 0.00 0.00 97 1040.0
20260905085542 73 57 0.0 0.0 0.00 0.00 0.00 97 1039.9
20260905084038 73 165 0.0 0.0 0.00 0.00 0.00 97 1039.8
20260905082537 73 160 0.0 1.0 0.00 0.00 0.00 97 1039.6
20260905081032 73 195 0.0 1.0 0.00 0.00 0.00 97 1039.8
20260905075532 73 188 0.0 1.0 0.00 0.00 0.00 97 1039.7
20260905074028 73 203 0.0 1.0 0.00 0.00 0.00 97 1039.8
20260905072524 73 23 0.0 0.0 0.00 0.00 0.00 97 1040.0
20260905071022 73 23 0.0 0.0 0.00 0.00 0.00 97 1039.9
20260905065522 73 172 0.0 1.0 0.00 0.00 0.00 96 1040.0
20260905064020 73 209 0.0 0.0 0.00 0.00 0.00 96 1040.3
20260905062515 73 165 0.0 0.0 0.00 0.00 0.00 96 1040.2
20260905061015 73 195 0.0 0.0 0.00 0.00 0.00 95 1040.2
20260905055511 74 180 0.0 0.0 0.00 0.00 0.00 95 1040.3
20260905054009 73 195 0.0 0.0 0.00 0.00 0.00 94 1040.1
20260905052504 74 195 0.0 1.0 0.00 0.00 0.00 94 1040.3
20260905051003 74 145 0.0 0.0 0.00 0.00 0.00 93 1040.2
20260905045501 75 278 0.0 0.0 0.00 0.02 0.02 93 1040.3
20260905043956 75 114 0.0 1.0 0.00 0.02 0.02 92 1040.3
20260905042456 75 0 0.0 0.0 0.00 0.02 0.02 92 1040.5
20260905040954 75 119 0.0 0.0 0.00 0.02 0.02 92 1040.2
20260905035454 75 83 0.0 0.0 0.00 0.02 0.02 91 1040.7
20260905033951 76 115 2.0 4.0 0.00 0.02 0.02 91 1040.6
20260905032447 76 90 0.0 2.0 0.00 0.02 0.02 90 1041.0
20260905030944 77 278 0.0 2.0 0.00 0.02 0.02 90 1040.7
20260905025440 77 108 2.0 3.0 0.00 0.02 0.02 89 1040.8
20260905023939 77 90 0.0 3.0 0.00 0.02 0.02 89 1040.9
20260905022434 77 90 0.0 4.0 0.00 0.02 0.02 88 1041.0
20260905020929 77 84 0.0 4.0 0.00 0.02 0.02 88 1040.6
20260905015427 78 68 2.0 2.0 0.00 0.02 0.02 87 1040.8
20260905013924 78 345 0.0 3.0 0.00 0.02 0.02 87 1040.6
20260905012422 79 8 0.0 2.0 0.00 0.02 0.02 85 1040.7
20260905010921 80 26 1.0 3.0 0.00 0.02 0.02 84 1040.4
20260905005420 83 114 0.0 3.0 0.00 0.02 0.02 84 1039.7
20260905003916 83 105 0.0 0.0 0.00 0.02 0.02 84 1039.5
20260905002413 84 126 1.0 2.0 0.00 0.02 0.02 84 1039.5
20260905000909 84 188 0.0 0.0 0.00 0.02 0.02 83 1039.7
20260904235408 86 188 0.0 0.0 0.00 0.02 0.02 80 1039.1
20260904233904 87 240 0.0 1.0 0.00 0.02 0.02 77 1038.7
20260904232403 88 188 0.0 2.0 0.00 0.02 0.02 75 1039.0
20260904230901 89 212 3.0 6.0 0.00 0.02 0.02 71 1039.0
20260904225359 89 243 2.0 7.0 0.00 0.02 0.02 70 1038.9
20260904223854 91 212 4.0 6.0 0.00 0.02 0.02 69 1039.2
20260904222350 91 184 2.0 5.0 0.00 0.02 0.02 67 1038.9
20260904220846 91 237 2.0 7.0 0.00 0.02 0.02 67 1039.2
20260904215342 91 276 2.0 5.0 0.00 0.02 0.02 66 1038.9
20260904213838 91 201 4.0 7.0 0.00 0.02 0.02 65 1039.0
20260904212335 90 200 7.0 7.0 0.00 0.02 0.02 65 1039.2
20260904210832 90 223 4.0 6.0 0.00 0.02 0.02 66 1039.0
20260904205329 87 249 1.0 3.0 0.00 0.02 0.02 70 1039.0
20260904203829 89 251 3.0 7.0 0.00 0.02 0.02 68 1039.0
20260904202329 89 270 5.0 7.0 0.00 0.02 0.02 66 1039.4
20260904200825 89 216 3.0 8.0 0.00 0.02 0.02 67 1039.4
20260904195323 87 194 6.0 6.0 0.00 0.02 0.02 69 1039.7
20260904193818 87 239 0.0 5.0 0.00 0.02 0.02 69 1039.7
20260904192315 86 23 2.0 4.0 0.00 0.02 0.02 70 1040.3
20260904190810 85 180 0.0 5.0 0.00 0.02 0.02 73 1040.5
20260904185309 85 233 2.0 7.0 0.00 0.02 0.02 72 1040.7
20260904183805 84 270 2.0 10.0 0.00 0.02 0.02 76 1040.9
20260904182301 81 212 0.0 5.0 0.00 0.02 0.02 80 1041.0
20260904180758 79 300 1.0 4.0 0.00 0.02 0.02 83 1041.3
20260904175256 78 154 3.0 5.0 0.00 0.02 0.02 86 1041.3
20260904173755 75 220 3.0 7.0 0.00 0.02 0.02 89 1041.1
20260904172250 73 117 1.0 5.0 0.00 0.02 0.02 93 1041.4
20260904170749 73 90 4.0 6.0 0.02 0.02 0.02 93 1042.4
20260904165249 73 54 0.0 5.0 0.07 0.02 0.02 92 1043.5
20260904163747 75 105 0.0 2.0 0.00 0.00 0.00 88 1044.3
20260904162243 77 123 2.0 5.0 0.00 0.00 0.00 85 1043.7
20260904160739 75 90 1.0 10.0 0.00 0.00 0.00 88 1044.0
20260904155234 75 124 0.0 8.0 0.00 0.00 0.00 88 1043.3
20260904153729 73 99 2.0 15.0 0.00 0.00 0.00 90 1043.7
20260904152227 74 74 1.0 10.0 0.00 0.00 0.00 91 1043.7
20260904150724 74 49 0.0 6.0 0.00 0.00 0.00 91 1044.3
20260904145218 74 77 1.0 5.0 0.00 0.00 0.00 91 1043.8
20260904143716 76 105 1.0 5.0 0.00 0.00 0.00 88 1043.3
20260904142211 76 75 3.0 11.0 0.00 0.00 0.00 88 1042.2
20260904140708 76 81 2.0 9.0 0.00 0.00 0.00 86 1042.1
20260904135203 76 63 2.0 11.0 0.00 0.00 0.00 87 1042.6
20260904133659 75 109 4.0 6.0 0.00 0.00 0.00 90 1042.7
20260904132155 74 63 0.0 5.0 0.00 0.00 0.00 90 1042.4
20260904130650 73 101 2.0 2.0 0.00 0.00 0.00 91 1042.0
20260904125147 72 105 0.0 4.0 0.00 0.00 0.00 92 1042.3
20260904123644 72 123 2.0 5.0 0.00 0.00 0.00 94 1041.6